Mitchell, SD

12:10 PM CDT on June 29, 2017 (GMT -0500)
Mitchell Municipal

Weather History for KMHE - July, 2013

Change the Weather History Date:

Saturday, July 20, 2013

  Actual Average Record
Temperature  
Mean Temperature 72 °F 75 °F  
Max Temperature 80 °F 87 °F 112 °F (1934)
Min Temperature 64 °F 63 °F 46 °F (1898)
Degree Days  
Heating Degree Days 0 0  
Month to date heating degree days 0 0  
Since 1 June heating degree days 50 35  
Since 1 July heating degree days 0 0  
Cooling Degree Days 7 10  
Month to date cooling degree days 247 198  
Year to date cooling degree days 471 408  
Since 1 June cooling degree days 414 368  
Growing Degree Days 22 (Base 50)    
Moisture  
Dew Point 63 °F    
Average Humidity 71    
Maximum Humidity 87    
Minimum Humidity 54    
Precipitation  
Precipitation 0.81 in 0.08 in 0.81 in (2013)
Month to date precipitation 3.76 2.07  
Year to date precipitation 15.85 12.93  
Snow  
Snow 0.00 in - 0.00 in ()
Month to date snowfall 0.0  
Since 1 June snowfall 0.0  
Since 1 July snowfall 0.0  
Snow Depth 0.00 in    
Sea Level Pressure  
Sea Level Pressure 29.94 in    
Wind  
Wind Speed 7 mph (NE)    
Max Wind Speed 24 mph    
Max Gust Speed 49 mph    
Visibility 9 miles    
Events Rain , Thunderstorm    
T = Trace of Precipitation, MM = Missing Value Source: NWS Daily Summary

Daily Weather History Graph

Daily Weather History Graph

Search for Another Location

Airport or City:

Trip Planner

Search our weather history database for the weather conditions in past years. The results will help you decide how hot, cold, wet, or windy it might be!

Date:

Astronomy

Jul. 20, 2013 Rise Set
Actual Time 6:08 AM CDT 9:07 PM CDT
Civil Twilight 5:34 AM CDT 9:41 PM CDT
Nautical Twilight 4:51 AM CDT 10:25 PM CDT
Astronomical Twilight 3:59 AM CDT 11:16 PM CDT
Moon 7:11 PM CDT (7/20) 3:50 AM CDT (7/20)
Length of Visible Light 16h 06m
Length of Day
14h 58m
Waxing Gibbous, 94% of the Moon is Illuminated
Jul 20
Waxing Gibbous
Jul 22
Full
Jul 29
Last Quarter
Aug 6
New
Aug 14
First Quarter

Hourly Weather History & Observations

Time (CDT) Temp. Dew Point Humidity Pressure Visibility Wind Dir Wind Speed Gust Speed Precip Events Conditions
12:53 AM 66.9 °F 59.0 °F 76% 29.92 in 10.0 mi SE 5.8 mph - N/A   Clear
1:53 AM 66.9 °F 59.0 °F 76% 29.91 in 10.0 mi South 5.8 mph - N/A   Clear
2:53 AM 66.0 °F 61.0 °F 84% 29.91 in 10.0 mi East 4.6 mph - N/A   Clear
3:53 AM 64.9 °F 61.0 °F 87% 29.90 in 10.0 mi South 4.6 mph - N/A   Clear
4:25 AM 66.2 °F 60.8 °F 83% 30.04 in 7.0 mi NW 23.0 mph 32.2 mph 0.02 in Rain , Thunderstorm Rain
4:30 AM 64.4 °F 60.8 °F 88% 30.05 in 4.0 mi NNW 15.0 mph 32.2 mph 0.05 in Rain , Thunderstorm Heavy Rain
4:42 AM 64.4 °F 60.8 °F 88% 30.04 in 10.0 mi North 13.8 mph - 0.05 in Rain Light Rain
4:53 AM 66.0 °F 61.0 °F 84% 30.02 in 10.0 mi NNW 6.9 mph - 0.06 in Rain Light Rain
5:53 AM 66.0 °F 61.0 °F 84% 30.03 in 5.0 mi WSW 10.4 mph - 0.14 in Rain Heavy Rain
6:53 AM 64.9 °F 61.0 °F 87% 29.93 in 10.0 mi SSE 12.7 mph - 0.04 in   Clear
7:53 AM 66.0 °F 59.0 °F 78% 29.94 in 10.0 mi Variable 5.8 mph - N/A   Partly Cloudy
8:53 AM 66.9 °F 62.1 °F 84% 29.91 in 10.0 mi Calm Calm - N/A   Clear
9:53 AM 75.0 °F 61.0 °F 62% 29.90 in 10.0 mi Calm Calm - N/A   Clear
10:53 AM 77.0 °F 64.0 °F 64% 29.91 in 10.0 mi NNE 5.8 mph - N/A   Clear
11:53 AM 79.0 °F 64.0 °F 60% 29.93 in 10.0 mi North 4.6 mph - N/A   Clear
12:53 PM 79.0 °F 66.0 °F 64% 29.93 in 10.0 mi NNE 10.4 mph - N/A   Clear
1:53 PM 77.0 °F 66.0 °F 69% 29.93 in 10.0 mi North 11.5 mph - N/A   Mostly Cloudy
2:15 PM 73.4 °F 64.4 °F 73% 29.97 in 10.0 mi North 11.5 mph 19.6 mph N/A Thunderstorm Mostly Cloudy
2:27 PM 73.4 °F 66.2 °F 78% 29.96 in 10.0 mi North 10.4 mph - N/A Thunderstorm Mostly Cloudy
2:50 PM 71.6 °F 62.6 °F 73% 29.94 in 10.0 mi NE 12.7 mph - N/A   Overcast
2:53 PM 71.1 °F 64.0 °F 78% 29.92 in 10.0 mi NE 8.1 mph - N/A   Mostly Cloudy
3:53 PM 79.0 °F 61.0 °F 54% 29.91 in 10.0 mi SSE 5.8 mph - N/A   Scattered Clouds
4:53 PM 75.0 °F 63.0 °F 66% 29.92 in 10.0 mi North 4.6 mph 17.3 mph N/A   Mostly Cloudy
5:53 PM 75.0 °F 64.0 °F 69% 29.88 in 10.0 mi East 4.6 mph - N/A   Scattered Clouds
6:53 PM 78.1 °F 62.1 °F 58% 29.89 in 10.0 mi NE 8.1 mph - N/A   Clear
7:53 PM 75.0 °F 63.0 °F 66% 29.88 in 10.0 mi ENE 5.8 mph - N/A   Mostly Cloudy
8:53 PM 72.0 °F 64.9 °F 78% 29.88 in 10.0 mi ESE 4.6 mph - N/A   Overcast
9:11 PM 71.6 °F 64.4 °F 78% 29.92 in 10.0 mi NNE 3.5 mph - N/A Thunderstorm Mostly Cloudy
9:53 PM 70.0 °F 66.0 °F 87% 29.87 in 10.0 mi East 6.9 mph - 0.03 in Thunderstorm Scattered Clouds
10:02 PM 69.8 °F 66.2 °F 88% 29.90 in 10.0 mi South 3.5 mph - N/A   Scattered Clouds
10:53 PM 70.0 °F 66.0 °F 87% 29.88 in 10.0 mi NNE 8.1 mph - N/A   Mostly Cloudy
11:22 PM 69.8 °F 64.4 °F 83% 29.98 in 3.0 mi NNW 16.1 mph 25.3 mph 0.16 in Rain , Thunderstorm Heavy Thunderstorms and Rain
11:25 PM 68.0 °F 62.6 °F 83% 29.98 in 1.8 mi NNW 12.7 mph - 0.25 in Rain , Thunderstorm Heavy Thunderstorms and Rain
11:40 PM 66.2 °F 62.6 °F 88% 29.96 in 3.0 mi NE 8.1 mph - 0.49 in Rain , Thunderstorm Heavy Thunderstorms and Rain
11:53 PM 66.9 °F 64.0 °F 90% 29.93 in 10.0 mi South 17.3 mph - 0.51 in Rain , Thunderstorm Light Rain